Location: A�t �Alizem
(31.2076°N, 8.7872°W)
Time: 16:26:52
(UTC+00:00)

YAOGAN 1 - Pass Details

Date: 27 November 2020
Orbit: 618 x 620 km, 97.9° (Epoch: 26 January)

Event Time Altitude Azimuth Distance (km) Brightness Sun altitude
Rises 19:03:07 0° 154° (SSE) 2,878 5.9 -19.1°
Reaches altitude 10° 19:05:21 10° 148° (SSE) 1,977 5.0 -19.5°
Enters shadow 19:06:31 18° 142° (SE) 1,528 4.3 -19.8°
Exits shadow 19:13:47 - 1° (N) 2,058 5.1 -21.3°
Sets 19:15:52 0° 356° (N) 2,899 5.9 -21.7°
